Regional Weather Roundup
Issued by NWS

Home | Current Version | Previous Version | Text Only | Print | Product List | Glossary Off
Versions: 1 2 3 4 5 6 7 8 9 10 11 12 13 14 15 16 17 18 19 20 21 22 23 24 25 26 27

000
ASUS45 KCYS 211610
RWRWY

WYOMING REGIONAL WEATHER ROUNDUP
NATIONAL WEATHER SERVICE CHEYENNE WY
900 AM MST WED FEB 21 2018

NOTE:  "FAIR" INDICATES FEW OR NO CLOUDS BELOW 12,000 FEET
WITH NO SIGNIFICANT WEATHER AND/OR OBSTRUCTIONS TO VISIBILITY.

WYZ001-211700-
YELLOWSTONE NATIONAL PARK

CITY           SKY/WX    TMP DP  RH WIND       PRES   REMARKS
LK YELLOWSTONE   N/A    -12 -15  86 CALM      29.97S
W YELLOWSTONE  NOT AVBL

$$
WYZ002>013-054>058-071-098>099-211700-
NORTHERN WYOMING

CITY           SKY/WX    TMP DP  RH WIND       PRES   REMARKS
JACKSON        LGT SNOW   0  -6  76 NE6       30.08R WCI -12
CODY           FAIR       6 -10  47 SE12      30.09S WCI  -9
GREYBULL       FAIR     -21 -25  81 NW3       30.23S FOG
WORLAND        FAIR     -13 -15  91 S3        30.20R
SHERIDAN       FAIR     -10 -16  74 VRB5      30.14S WCI -22
BUFFALO        FAIR       6  -8  52 VRB3      30.08S
GILLETTE       FAIR       1  -9  62 S6        30.15R WCI -10
HULETT         FAIR       1  -9  60 MISG      30.17S
NEWCASTLE      FAIR      -6 -15  65 CALM      30.23S

$$
WYZ014>020-022>026-101>103-211700-
CENTRAL WYOMING

CITY           SKY/WX    TMP DP  RH WIND       PRES   REMARKS
BIG PINEY      CLOUDY   -13 -16  86 SE3       30.10R
PINEDALE       CLOUDY    -9 -15  77 NW5       30.09F WCI -21
DUBOIS           N/A    N/A N/A N/A MISG        N/A
LANDER         FAIR      -7 -11  83 NW5       30.11R WCI -18
RIVERTON       FAIR      -9 -14  78 E3        30.12R
CASPER         FAIR       3  -5  69 SW13      30.13R WCI -14
DOUGLAS        FAIR     -17 -24  70 NW6       30.17S WCI -32

$$
WYZ021-027>030-104>119-211700-
SOUTHERN WYOMING

CITY           SKY/WX    TMP DP  RH WIND       PRES   REMARKS
EVANSTON       CLOUDY     1 -10  60 SE6       30.03R WCI -10
FORT BRIDGER   FAIR      -7 -14  71 N3        30.10R
ROCK SPRINGS   FAIR      -6 -10  83 S5        30.09S WCI -17
DIXON          FAIR     -10 -17  73 CALM      30.14F
RAWLINS        FAIR       2  -3  80 SW7       30.09R WCI -11
SARATOGA       PTSUNNY   -2  -9  71 CALM      30.09R
LARAMIE        FAIR      -2  -7  79 SW5       30.05S WCI -12
CHEYENNE       FAIR      14   9  80 SW5       30.13S WCI   6
TORRINGTON     FAIR       2  -1  88 S3        30.23F
PINE BLUFFS    FAIR       5   1  85 S9        30.22R WCI  -9

$$




USA.gov is the U.S. government's official web portal to all federal, state and local government web resources and services.